EW3506 Weather Reports


time (UTC)temp
F
wind
direction
speed
knots
gust
knots
rain 1hr
in
rain 24hr
in
rain mn
in
humidity
%
barometer
mb
20260906130004 67 0.0 0.0 0.00 0.00 0.00 97 1015.6
20260906124502 67 0.0 0.0 0.00 0.00 0.00 97 1015.5
20260906123001 66 0.0 0.0 0.00 0.00 0.00 97 1015.4
20260906121601 66 0.0 0.0 0.00 0.00 0.00 97 1015.5
20260906120059 66 0.0 0.0 0.00 0.00 0.00 97 1015.0
20260906114555 66 0.0 0.0 0.00 0.00 0.00 97 1014.8
20260906113055 66 0.0 0.0 0.00 0.00 0.00 97 1014.7
20260906111608 66 0.0 0.0 0.00 0.00 0.00 96 1014.3
20260906110053 66 0.0 0.0 0.00 0.00 0.00 96 1014.3
20260906104551 66 0.0 0.0 0.00 0.00 0.00 96 1014.2
20260906103048 66 0.0 0.0 0.00 0.00 0.00 96 1014.0
20260906101546 66 0.0 0.0 0.00 0.00 0.00 96 1013.9
20260906100052 66 0.0 0.0 0.00 0.00 0.00 96 1013.8
20260906094547 66 0.0 0.0 0.00 0.00 0.00 96 1013.6
20260906093042 66 0.0 0.0 0.00 0.00 0.00 95 1013.6
20260906091544 67 0.0 0.0 0.00 0.00 0.00 95 1013.6
20260906090040 67 0.0 0.0 0.00 0.00 0.00 95 1013.6
20260906084539 67 0.0 0.0 0.00 0.00 0.00 95 1013.5
20260906083038 67 0.0 0.0 0.00 0.00 0.00 95 1013.4
20260906081536 68 0.0 0.0 0.00 0.00 0.00 94 1013.6
20260906080037 68 0.0 0.0 0.00 0.00 0.00 94 1013.6
20260906074536 68 0.0 0.0 0.00 0.00 0.00 94 1013.8
20260906073033 68 0.0 0.0 0.00 0.00 0.00 93 1013.7
20260906071531 68 0.0 0.0 0.00 0.00 0.00 93 1013.7
20260906070031 69 0.0 0.0 0.00 0.00 0.00 92 1013.9
20260906064529 69 0.0 0.0 0.00 0.00 0.00 92 1013.9
20260906063027 69 0.0 0.0 0.00 0.00 0.00 91 1013.7
20260906061524 70 0.0 0.0 0.00 0.00 0.00 91 1013.8
20260906060027 70 0.0 0.0 0.00 0.00 0.00 90 1013.7
20260906054536 71 0.0 0.0 0.00 0.00 0.00 89 1013.6
20260906053017 71 0.0 0.0 0.00 0.00 0.00 89 1013.6
20260906051511 71 0.0 0.0 0.00 0.00 0.00 89 1013.5
20260906050009 71 0.0 0.0 0.00 0.00 0.00 89 1013.2
20260906044508 71 0.0 0.0 0.00 0.00 0.00 89 1013.3
20260906043013 71 0.0 0.0 0.00 0.00 0.00 89 1013.1
20260906041503 71 0.0 0.0 0.00 0.00 0.00 88 1012.9
20260906040001 71 0.0 0.0 0.00 0.00 0.00 88 1012.7
20260906034611 71 0.0 0.0 0.00 0.00 0.00 87 1012.6
20260906033107 71 0.0 0.0 0.00 0.00 0.00 87 1012.6
20260906031559 72 0.0 0.0 0.00 0.00 0.00 87 1012.5
20260906030101 72 0.0 0.0 0.00 0.00 0.00 86 1012.4
20260906024610 72 0.0 0.0 0.00 0.00 0.00 86 1012.5
20260906023102 73 0.0 0.0 0.00 0.00 0.00 85 1012.4
20260906021554 73 0.0 0.0 0.00 0.00 0.00 86 1012.3
20260906020054 73 0.0 0.0 0.00 0.00 0.00 85 1012.3
20260906014553 72 0.0 0.0 0.00 0.00 0.00 85 1012.3
20260906013052 72 0.0 0.0 0.00 0.00 0.00 86 1012.4
20260906011552 72 0.0 0.0 0.00 0.00 0.00 86 1012.4
20260906010050 72 0.0 0.0 0.00 0.00 0.00 86 1012.4
20260906004549 73 0.0 0.0 0.00 0.00 0.00 85 1012.2
20260906003044 74 0.0 0.0 0.00 0.00 0.00 82 1011.9
20260906001542 76 0.0 0.0 0.00 0.00 0.00 82 1011.8
20260906000040 77 0.0 0.0 0.00 0.00 0.00 80 1011.4
20260905234538 79 0.0 0.0 0.00 0.00 0.00 78 1011.1
20260905233140 79 0.0 0.0 0.00 0.00 0.00 78 1011.1
20260905231538 81 0.0 0.0 0.00 0.00 0.00 74 1011.0
20260905230036 82 0.0 0.0 0.00 0.00 0.00 73 1010.9
20260905224606 83 0.0 0.0 0.00 0.00 0.00 70 1010.6
20260905223037 83 0.0 0.0 0.00 0.00 0.00 70 1010.5
20260905221533 83 0.0 0.0 0.00 0.00 0.00 70 1010.4
20260905220032 83 0.0 0.0 0.00 0.00 0.00 72 1010.4
20260905214533 83 0.0 0.0 0.00 0.00 0.00 73 1010.6
20260905213032 83 0.0 0.0 0.00 0.00 0.00 74 1010.7
20260905211541 83 0.0 0.0 0.00 0.00 0.00 74 1010.6
20260905210039 82 0.0 0.0 0.00 0.00 0.00 77 1010.8
20260905204528 81 0.0 0.0 0.00 0.00 0.00 76 1010.9
20260905203027 81 0.0 0.0 0.00 0.00 0.00 78 1011.1
20260905201526 79 0.0 0.0 0.00 0.00 0.00 81 1011.1
20260905200028 79 0.0 0.0 0.00 0.00 0.00 80 1011.1
20260905194524 80 0.0 0.0 0.00 0.00 0.00 79 1011.1
20260905193024 82 0.0 0.0 0.00 0.00 0.00 76 1011.0
20260905191523 82 0.0 0.0 0.00 0.00 0.00 75 1011.0
20260905190023 82 0.0 0.0 0.00 0.00 0.00 76 1011.1
20260905184528 82 0.0 0.0 0.00 0.00 0.00 76 1011.1
20260905183021 83 0.0 0.0 0.00 0.00 0.00 75 1011.2
20260905181519 82 0.0 0.0 0.00 0.00 0.00 77 1011.1
20260905180018 83 0.0 0.0 0.00 0.00 0.00 77 1011.0
20260905174522 82 0.0 0.0 0.00 0.00 0.00 79 1010.9
20260905173017 83 0.0 0.0 0.00 0.00 0.00 78 1011.0
20260905171516 83 0.0 0.0 0.00 0.00 0.00 80 1010.9
20260905170016 82 0.0 0.0 0.00 0.00 0.00 79 1011.0
20260905164516 82 0.0 0.0 0.00 0.00 0.00 80 1011.2
20260905163010 81 0.0 0.0 0.00 0.00 0.00 82 1011.2
20260905161508 80 0.0 0.0 0.00 0.00 0.00 83 1011.2
20260905160004 80 0.0 0.0 0.00 0.00 0.00 83 1011.3
20260905154502 79 0.0 0.0 0.00 0.00 0.00 85 1011.1
20260905153100 79 0.0 0.0 0.00 0.00 0.00 86 1011.0
20260905151559 78 0.0 0.0 0.00 0.00 0.00 87 1011.0
20260905144555 76 0.0 0.0 0.00 0.00 0.00 90 1010.6
20260905143055 75 0.0 0.0 0.00 0.00 0.00 91 1010.5
20260905141554 74 0.0 0.0 0.00 0.00 0.00 93 1010.6
20260905140054 74 0.0 0.0 0.00 0.00 0.00 94 1010.5
20260905134555 74 0.0 0.0 0.00 0.00 0.00 94 1010.3
20260905133056 74 0.0 0.0 0.00 0.00 0.00 94 1010.4
20260905131554 74 0.0 0.0 0.00 0.00 0.00 94 1010.4